Wind_Speed
43 47 49 51 55 57 58 59 61 60 58 59 62 63 62 61 61 60 58 57 55 53 50 49 47 45 44 44 44 43 42 41 39 37 35 34 34 33 33 32 31 30 28 28
43 45 44 45 50 55 58 59 59 58 56 57 60 64 64 63 62 61 60 58 57 54 52 51 49 48 46 45 44 43 43 42 40 38 37 36 35 34 34 33 32 31 30 29
41 42 43 46 49 53 56 57 58 58 57 57 59 64 65 64 63 62 61 60 58 56 54 52 51 50 48 46 45 44 43 42 41 40 39 38 37 36 34 33 33 32 31 31
36 39 43 47 49 50 54 54 54 55 55 56 58 62 64 64 63 63 63 61 59 58 56 54 53 51 49 47 45 45 44 43 42 41 40 39 37 36 35 35 34 34 33 32
33 37 42 46 47 48 51 51 52 53 54 55 57 61 63 61 63 62 62 61 59 58 57 56 54 52 50 49 47 46 45 44 44 43 41 41 39 38 38 37 36 35 34 33
31 34 38 43 45 46 48 49 49 50 52 56 57 58 63 61 60 60 60 60 59 58 57 56 55 53 52 51 49 48 47 46 45 44 43 42 41 40 39 38 37 36 35 34
29 32 34 38 43 45 46 47 47 48 51 56 55 58 61 58 58 58 59 59 59 59 58 57 57 55 53 52 51 49 48 47 46 46 44 43 42 42 41 40 39 37 36 36
27 30 32 36 39 43 45 47 47 48 49 52 52 57 57 54 54 55 56 57 58 59 58 58 56 56 54 53 52 51 49 48 48 47 46 44 44 43 42 41 40 39 38 38
25 27 29 33 37 40 43 46 47 45 44 47 50 52 53 51 51 52 54 55 57 57 57 58 57 56 56 54 52 52 51 50 48 47 46 46 45 44 43 43 42 41 40 39
24 26 29 31 35 39 42 43 46 46 43 43 46 48 52 51 50 51 53 54 55 56 56 57 57 56 56 54 53 53 52 51 49 48 47 46 46 46 45 44 43 42 41 41
23 25 26 30 33 35 40 44 47 47 44 40 41 45 47 46 47 49 52 53 53 54 55 56 56 57 56 55 54 54 53 52 51 49 48 47 47 47 46 45 45 44 42 42
24 24 24 27 30 34 37 40 45 47 46 42 38 39 40 41 42 44 47 50 52 54 53 53 54 55 56 56 55 54 53 52 51 51 49 47 46 46 47 46 45 44 43 43
24 25 24 24 28 32 35 38 42 46 46 43 41 37 39 38 39 40 43 45 48 52 54 53 53 54 55 56 55 54 53 52 51 50 50 48 47 47 46 45 45 44 43 42
24 26 26 26 27 32 35 37 40 44 47 45 42 38 37 38 39 39 40 43 45 47 51 52 52 52 53 54 54 54 53 52 50 49 49 48 47 47 46 45 45 45 44 43
25 26 26 27 28 30 34 38 40 44 47 46 42 41 39 38 40 40 40 41 43 45 47 49 51 51 52 52 52 53 52 52 51 49 48 47 46 46 45 45 45 44 44 44
24 25 26 28 29 31 32 35 38 42 45 46 45 43 41 40 41 41 40 40 41 43 45 47 49 50 50 50 50 51 51 51 51 50 49 47 46 45 45 44 45 45 45 44
22 23 25 26 27 29 31 32 35 41 43 46 46 44 42 41 41 40 40 41 41 42 44 46 47 48 49 49 49 49 49 49 49 49 49 48 46 46 45 45 45 45 44 44
20 21 23 24 26 27 28 29 33 37 40 43 45 44 44 42 41 41 41 41 41 42 45 46 47 48 48 48 49 49 48 48 48 48 47 47 47 45 44 43 43 42 42 42
19 20 22 23 25 26 28 28 30 34 37 40 43 44 44 45 44 43 42 42 43 44 45 45 46 47 48 48 48 48 47 47 47 47 46 45 44 44 43 42 42 41 40 39
20 20 22 22 23 25 27 27 28 32 36 39 40 43 43 44 46 45 44 44 44 45 46 45 45 46 47 47 47 46 46 46 45 45 45 44 43 42 42 41 40 40 39 38
20 22 22 23 23 25 27 28 28 32 34 37 39 41 43 45 44 45 46 45 45 46 46 46 45 45 46 47 47 46 45 45 44 44 43 42 42 41 41 40 40 39 38 37
21 22 23 24 25 25 26 27 29 31 34 36 39 40 42 44 45 45 46 48 47 47 46 47 46 46 46 47 47 46 45 45 44 43 42 41 41 40 40 39 38 37 36 36
22 22 23 26 26 26 27 28 29 30 32 34 37 39 40 42 44 45 46 47 48 48 48 48 47 47 47 47 47 47 46 45 44 43 42 41 40 39 39 38 37 36 35 35
22 23 24 26 27 28 29 30 31 32 33 34 35 37 39 41 42 44 45 46 47 48 50 49 48 49 48 47 47 47 46 45 44 43 42 41 40 39 39 37 36 35 34 34
22 23 25 26 26 28 29 31 32 33 34 35 36 37 39 41 42 43 44 46 46 47 48 49 49 50 50 48 48 48 47 45 44 43 41 41 39 38 38 36 35 34 33 33
22 24 26 26 26 28 28 30 32 33 34 35 36 37 38 40 41 42 43 46 47 47 47 48 49 49 50 49 49 48 47 46 45 43 42 41 40 39 37 35 34 33 32 32
Wind_Direction
238 235 233 233 233 232 231 231 231 230 230 232 232 231 228 227 227 226 226 226 226 226 227 228 228 228 229 229 229 229 229 229 229 230 231 231 230 230 230 231 233 237 240 242
237 235 232 230 230 229 228 229 229 228 228 231 232 231 229 228 227 226 226 226 226 225 226 228 228 228 229 229 229 229 229 229 229 230 231 230 229 229 230 231 235 239 241 244
240 235 230 227 226 226 226 227 227 228 227 230 232 232 229 228 227 226 226 226 226 226 226 227 229 229 229 229 229 229 229 229 229 229 229 230 230 230 231 234 237 239 242 244
240 232 229 227 225 226 226 224 226 227 227 229 230 233 229 228 228 226 225 225 225 226 226 227 228 229 229 229 229 229 229 228 228 228 229 230 231 232 233 235 237 240 243 245
238 232 229 227 224 224 225 223 224 225 226 228 229 233 230 229 229 227 226 226 226 227 227 227 228 229 229 229 229 229 229 229 229 229 230 230 231 233 234 236 239 241 244 247
238 232 232 228 224 223 223 223 225 226 228 229 226 231 231 228 228 227 227 227 226 227 227 228 228 229 229 230 229 229 230 230 230 231 231 232 233 234 235 237 240 242 245 248
239 232 229 228 225 222 221 221 223 225 228 230 227 232 232 228 227 227 227 227 227 227 228 228 228 229 229 230 230 230 231 231 231 232 232 233 234 235 237 238 240 243 246 249
241 232 227 227 226 224 222 221 221 225 229 230 230 232 230 229 228 228 227 227 227 227 228 229 230 230 230 230 231 231 232 233 233 234 234 235 236 237 238 239 242 245 248 251
243 231 225 226 226 225 222 222 220 225 228 231 232 232 229 228 228 227 226 226 227 227 228 229 229 230 230 230 230 232 233 234 234 235 235 236 237 238 239 241 243 245 248 252
243 235 226 226 226 226 224 223 220 221 224 229 232 231 229 228 229 229 228 228 227 228 227 228 229 229 230 230 230 231 233 234 235 235 236 237 238 239 240 241 243 246 249 253
242 239 231 226 224 225 223 222 220 222 225 227 230 231 230 231 232 231 229 229 229 229 229 229 229 229 230 230 230 230 232 233 234 235 236 237 239 239 241 242 245 247 250 253
240 237 233 226 222 222 223 223 221 221 223 224 226 226 226 229 230 232 231 231 230 230 229 229 230 230 230 231 231 231 232 233 234 236 237 238 239 241 242 243 246 248 252 255
240 240 235 225 222 222 224 223 223 223 222 222 224 221 222 227 230 231 231 230 230 229 229 229 230 230 231 232 231 232 233 234 235 236 237 238 239 241 242 244 247 249 252 254
241 242 237 229 228 227 224 223 222 222 222 221 221 221 218 221 226 227 229 228 227 228 228 229 230 230 230 231 232 232 233 234 235 236 236 238 239 241 243 245 247 250 252 254
246 243 240 236 233 231 229 226 225 223 222 221 220 223 222 219 223 225 225 225 226 226 226 227 228 228 228 229 231 231 232 234 235 237 237 238 239 241 243 245 247 250 252 254
251 248 244 239 236 236 232 228 227 223 223 222 222 223 224 221 223 226 225 222 224 225 225 226 226 226 227 228 229 230 231 233 235 237 238 239 239 240 242 244 247 249 252 254
255 250 247 244 241 239 234 228 227 223 223 225 225 224 224 224 223 225 224 223 224 224 224 225 226 227 226 226 227 229 230 231 233 235 237 238 240 242 243 245 246 249 251 254
255 251 249 247 241 241 238 234 230 226 224 226 227 226 227 226 225 225 226 225 224 223 223 224 225 226 226 226 226 227 228 230 232 233 236 238 240 242 244 246 248 250 252 254
253 253 251 248 242 242 238 236 233 229 225 224 225 225 227 226 226 227 228 227 225 223 222 222 222 223 224 225 225 226 227 228 230 232 235 237 240 242 244 246 248 250 251 253
250 249 250 248 243 241 237 235 234 232 231 225 225 224 226 226 225 225 225 224 221 221 221 220 220 221 222 223 224 225 226 227 229 231 233 235 238 241 243 245 247 248 250 252
252 248 249 248 245 242 237 235 233 232 230 228 225 223 224 224 224 222 221 220 220 220 220 219 219 220 220 221 223 224 226 227 228 230 232 234 237 239 242 244 246 248 250 252
255 250 248 246 245 245 239 235 233 232 230 229 226 225 225 224 223 222 220 219 218 219 219 218 218 219 219 220 222 223 225 226 227 229 231 233 235 238 240 243 245 247 250 253
254 250 247 244 244 243 242 238 234 232 230 228 227 227 226 225 224 222 222 221 219 219 218 217 217 218 218 219 220 222 224 226 227 229 230 232 234 237 239 241 244 247 251 254
251 249 247 245 244 243 242 240 238 235 231 229 228 226 226 227 226 225 223 223 221 219 218 218 217 217 218 218 220 221 223 224 226 227 229 232 234 236 238 241 244 247 251 255
252 252 250 247 245 245 242 240 239 237 234 231 230 229 228 227 226 225 223 223 221 219 219 219 218 217 218 219 220 220 222 224 226 228 230 233 234 235 237 240 243 247 250 253
254 255 255 252 246 246 243 239 239 238 236 233 231 230 229 227 226 224 223 223 222 221 220 220 221 220 219 220 221 221 223 224 226 228 230 233 234 235 237 240 243 246 249 252
Height
5536 5540 5547 5557 5565 5575 5583 5590 5597 5609 5619 5623 5630 5639 5650 5658 5665 5674 5682 5690 5699 5707 5715 5721 5727 5733 5738 5744 5750 5756 5762 5767 5772 5778 5783 5787 5791 5795 5799 5803 5806 5810 5813 5815
5524 5529 5540 5547 5552 5560 5568 5575 5585 5596 5605 5611 5617 5625 5636 5644 5653 5663 5672 5681 5689 5697 5705 5711 5718 5724 5731 5737 5743 5749 5755 5760 5766 5772 5776 5780 5784 5789 5793 5797 5801 5804 5807 5809
5514 5524 5529 5533 5539 5546 5554 5564 5575 5584 5593 5598 5605 5611 5621 5631 5641 5650 5660 5670 5679 5688 5696 5703 5709 5716 5723 5729 5735 5742 5748 5754 5759 5764 5769 5773 5778 5783 5787 5791 5795 5798 5801 5803
5505 5513 5517 5521 5528 5536 5544 5556 5564 5572 5580 5586 5593 5597 5609 5620 5629 5639 5650 5660 5670 5678 5686 5694 5700 5708 5715 5722 5728 5734 5740 5746 5752 5757 5762 5767 5773 5778 5782 5785 5788 5791 5794 5797
5497 5503 5507 5512 5520 5528 5536 5547 5554 5561 5567 5574 5580 5585 5597 5607 5617 5629 5641 5651 5661 5669 5677 5685 5692 5699 5707 5713 5720 5726 5732 5738 5744 5749 5755 5760 5766 5771 5774 5778 5781 5785 5788 5791
5490 5494 5499 5505 5513 5519 5529 5537 5544 5549 5555 5559 5570 5575 5583 5597 5610 5623 5632 5642 5651 5660 5668 5675 5682 5690 5697 5704 5711 5718 5724 5730 5736 5742 5747 5753 5758 5763 5767 5771 5775 5778 5781 5784
5483 5487 5492 5498 5504 5512 5519 5527 5534 5538 5542 5548 5562 5564 5574 5591 5603 5613 5622 5632 5641 5649 5657 5665 5672 5680 5688 5695 5703 5709 5716 5722 5728 5734 5740 5745 5751 5755 5760 5764 5767 5771 5774 5777
5476 5481 5486 5491 5497 5504 5511 5518 5525 5531 5537 5545 5552 5555 5570 5584 5593 5602 5611 5621 5629 5638 5647 5655 5663 5671 5679 5687 5694 5701 5707 5714 5720 5726 5732 5738 5742 5747 5752 5756 5760 5763 5766 5769
5470 5475 5480 5485 5491 5497 5503 5509 5518 5526 5531 5538 5542 5551 5563 5572 5581 5591 5600 5609 5618 5628 5637 5645 5653 5661 5669 5677 5685 5692 5698 5705 5711 5717 5723 5729 5734 5739 5743 5748 5751 5755 5758 5761
5465 5469 5474 5478 5483 5489 5497 5504 5510 5516 5522 5529 5536 5545 5554 5564 5573 5583 5591 5600 5609 5618 5626 5635 5643 5651 5658 5667 5675 5682 5688 5696 5702 5708 5714 5720 5725 5730 5735 5739 5743 5746 5750 5752
5460 5463 5468 5472 5476 5482 5489 5495 5501 5509 5515 5522 5530 5540 5550 5557 5565 5573 5582 5590 5599 5608 5616 5624 5633 5641 5648 5656 5664 5672 5679 5685 5692 5699 5705 5711 5716 5721 5725 5730 5734 5737 5741 5743
5456 5459 5462 5466 5471 5476 5482 5488 5495 5502 5509 5516 5523 5535 5542 5548 5555 5563 5572 5581 5589 5597 5606 5614 5622 5630 5638 5645 5654 5662 5669 5676 5683 5690 5696 5701 5707 5712 5716 5721 5725 5728 5731 5734
5451 5454 5457 5461 5467 5470 5474 5480 5486 5494 5502 5508 5516 5528 5534 5540 5547 5554 5562 5570 5578 5586 5594 5603 5611 5619 5627 5635 5643 5652 5659 5667 5673 5679 5686 5692 5697 5702 5707 5712 5715 5719 5722 5724
5446 5448 5452 5455 5457 5462 5467 5472 5478 5485 5492 5501 5510 5519 5526 5531 5538 5545 5553 5560 5568 5575 5584 5592 5600 5609 5617 5625 5633 5642 5650 5656 5663 5669 5676 5682 5688 5693 5698 5702 5705 5709 5712 5715
5440 5443 5446 5449 5451 5455 5460 5465 5470 5477 5485 5494 5503 5510 5517 5523 5530 5537 5543 5550 5557 5565 5573 5581 5590 5598 5607 5615 5623 5631 5639 5646 5653 5659 5665 5672 5677 5682 5687 5691 5695 5699 5702 5705
5435 5438 5440 5444 5446 5449 5453 5458 5464 5471 5478 5486 5494 5501 5508 5514 5520 5527 5534 5541 5548 5556 5563 5571 5580 5588 5597 5605 5613 5621 5628 5636 5642 5649 5655 5661 5667 5672 5676 5681 5685 5688 5692 5695
5430 5432 5435 5438 5441 5443 5449 5454 5458 5464 5471 5477 5484 5493 5499 5505 5511 5518 5524 5532 5539 5546 5554 5562 5570 5579 5587 5595 5603 5610 5618 5625 5632 5638 5645 5651 5656 5661 5666 5671 5674 5678 5682 5684
5425 5427 5429 5432 5436 5439 5446 5448 5452 5457 5463 5469 5476 5484 5490 5496 5502 5509 5516 5523 5530 5538 5545 5553 5561 5569 5577 5585 5593 5600 5607 5615 5622 5628 5634 5640 5646 5651 5656 5660 5664 5668 5671 5674
5420 5422 5424 5426 5429 5432 5438 5441 5445 5450 5456 5461 5467 5474 5481 5486 5493 5500 5507 5514 5521 5529 5536 5544 5551 5560 5568 5575 5583 5590 5598 5605 5611 5618 5624 5630 5636 5641 5646 5650 5654 5658 5661 5664
5416 5417 5419 5420 5423 5426 5431 5435 5437 5443 5448 5453 5458 5465 5471 5477 5485 5493 5498 5505 5512 5520 5527 5535 5542 5550 5558 5566 5573 5581 5588 5595 5602 5608 5615 5620 5626 5631 5636 5640 5644 5648 5651 5654
5410 5412 5413 5415 5416 5419 5424 5428 5431 5437 5440 5444 5450 5456 5462 5468 5476 5483 5489 5496 5503 5511 5518 5526 5534 5541 5549 5556 5564 5571 5579 5586 5592 5599 5605 5610 5616 5621 5626 5630 5634 5638 5641 5644
5404 5405 5407 5408 5410 5415 5417 5420 5424 5427 5432 5437 5442 5448 5453 5460 5466 5473 5480 5487 5494 5501 5509 5517 5525 5533 5540 5547 5555 5562 5570 5576 5583 5589 5595 5601 5606 5611 5616 5621 5625 5628 5632 5635
5398 5400 5400 5402 5405 5407 5408 5411 5415 5419 5424 5428 5433 5439 5445 5451 5457 5464 5471 5478 5485 5492 5500 5507 5515 5523 5531 5538 5546 5553 5560 5567 5573 5580 5586 5592 5597 5602 5607 5611 5615 5619 5622 5625
5392 5393 5393 5394 5397 5400 5401 5404 5407 5411 5416 5420 5425 5430 5436 5442 5448 5455 5461 5468 5475 5483 5490 5498 5506 5513 5521 5529 5536 5544 5551 5558 5564 5571 5577 5583 5588 5593 5598 5602 5607 5610 5614 5616
5385 5386 5386 5387 5391 5392 5394 5396 5399 5403 5407 5412 5417 5422 5427 5433 5439 5445 5452 5459 5466 5473 5481 5488 5496 5504 5512 5519 5527 5534 5542 5549 5555 5562 5568 5574 5579 5584 5589 5593 5598 5601 5605 5607
5380 5379 5379 5380 5383 5384 5386 5388 5391 5394 5399 5403 5408 5413 5418 5423 5429 5436 5443 5450 5457 5464 5471 5479 5486 5494 5502 5510 5517 5525 5532 5540 5547 5553 5559 5565 5571 5575 5580 5584 5588 5592 5595 5598